Location: Vassar Physics Lab
(41.6843°N, 73.8954°W)
Time: 07:08:57
(UTC-04:00)

Daily predictions for brighter satellites

Satellite Brightness Start Highest point End
(mag) Time Altitude Azimuth Time Altitude Azimuth Time Altitude Azimuth
Cosmos 1707 4.4 21:03:29 10° SSW 21:07:05 37° WNW 21:10:42 10° N
Cosmos 1726 3.9 21:05:24 10° NNE 21:08:06 18° ENE 21:10:46 10° ESE
ERS-2 2.3 21:08:06 10° S 21:11:46 79° WSW 21:15:27 10° NNW
Spot 2 Rocket 3.6 21:07:23 10° SSE 21:12:26 88° WSW 21:17:33 10° NNW
Cosmos 1238 Rocket 2.2 21:11:20 10° S 21:14:12 56° E 21:17:16 10° NNE
Cosmos 724 4.5 21:10:27 10° NNW 21:16:30 74° ENE 21:22:37 10° SE
ATLAS 3B R/B 3.1 21:14:22 10° NNW 21:20:49 49° NE 21:27:09 10° ESE
Lacrosse 5 3.0 21:18:32 10° WSW 21:23:27 50° NW 21:28:23 10° NE
ARGOS 3.3 21:18:14 10° SSE 21:23:33 61° ENE 21:28:54 10° N
Cosmos 1553 Rocket 4.4 21:19:07 10° SSE 21:24:43 41° E 21:30:21 10° NNE
Cosmos 1953 Rocket 3.6 21:22:56 10° S 21:27:17 84° W 21:31:43 10° N
CZ-4B DEB 4.4 21:24:02 10° SSE 21:27:28 86° ENE 21:30:57 10° N
Cosmos 2278 Rocket 3.2 21:22:53 10° SSE 21:27:32 27° ESE 21:32:12 10° NE
USA 238 DEB 3.9 21:20:26 10° NNW 21:27:35 71° NE 21:34:27 12° SE
MetOp-A 4.3 21:22:19 10° SSE 21:27:35 63° ENE 21:32:53 10° N
USA 238 3.9 21:20:33 10° NNW 21:27:41 71° NE 21:34:32 12° SE
Cosmos 1110 Rocket 4.0 21:27:06 10° NNW 21:32:17 70° ENE 21:37:11 11° SSE
Cosmos 1758 Rocket 4.2 21:27:55 10° SSW 21:32:18 59° W 21:36:40 10° N
NOSS 3-2 (A) 4.4 21:31:05 10° NNW 21:38:29 59° NE 21:45:48 13° SE
Cosmos 1315 Rocket 4.2 21:35:58 10° SSW 21:39:51 43° WNW 21:43:47 10° N
Cosmos 1844 Rocket 3.0 21:35:47 10° SSW 21:41:27 75° WNW 21:47:08 10° NNE
Cosmos 2221 4.2 21:38:49 10° NNE 21:41:55 19° ENE 21:44:18 13° ESE
Cosmos 494 Rocket 4.0 21:38:15 10° SSW 21:43:30 84° ESE 21:48:48 10° NNE
Cosmos 1331 Rocket 4.0 21:38:31 10° NNW 21:43:45 79° ENE 21:48:20 14° SSE
Cosmos 921 Rocket 3.2 21:40:18 10° NNW 21:44:49 81° WSW 21:48:59 12° SSE
COSMOS 2406 3.3 21:42:50 10° NNW 21:48:38 79° ENE 21:53:24 15° SSE
Cosmos 1461 3.4 21:46:17 10° S 21:50:40 45° ESE 21:55:13 10° NE
Cosmos 1844 3.9 21:45:20 10° SSW 21:51:02 82° WNW 21:56:51 10° NNE
Resurs 01 Rocket 3.8 21:48:25 10° SSW 21:51:57 23° W 21:55:31 10° NW
H-2A R/B 2.1 21:47:31 11° SSE 21:52:38 89° ENE 21:58:05 10° NNW
SPOT 1/Viking Rocket 4.2 21:49:02 16° SE 21:52:48 41° ENE 21:57:37 10° N
ATLAS 2AS CENTAUR R/B 3.5 21:46:42 10° SW 21:54:30 68° NW 22:02:38 10° NNE
KORONAS-FOTON 3.8 21:51:36 10° S 21:55:29 81° E 21:59:25 10° N
ATLAS 5 CENTAUR R/B 2.5 21:53:56 14° SSE 21:56:52 28° ESE 22:00:54 10° NE
OAO 3 Rocket 4.2 21:57:46 10° WSW 22:02:09 32° SSW 22:04:34 21° SSE
SL-14 R/B 3.8 22:00:39 21° SSE 22:02:47 39° E 22:06:28 10° NNE
NOSS 3-2 (C) 4.3 21:57:34 10° NNW 22:05:02 63° NE 22:11:26 18° SE
Cosmos 1346 Rocket 4.3 22:04:23 10° NNW 22:08:02 34° W 22:11:44 10° SSW
Cosmos 220 Rocket 3.9 22:04:42 10° SSW 22:08:56 89° W 22:13:10 10° NNE
Terra 2.9 22:06:52 18° ESE 22:09:29 31° ENE 22:13:39 10° N
ERS-1 Rocket 3.0 22:06:44 17° SSE 22:10:42 85° WSW 22:15:47 10° NNW
Cosmos 1626 3.4 22:10:24 22° ESE 22:11:13 24° E 22:14:15 10° NE
BREEZE-M DEB (TANK) 3.8 22:02:58 10° WSW 22:11:41 59° NNW 22:14:42 10° NE
Meteor 2-13 Rocket 4.5 22:06:14 10° N 22:12:20 70° E 22:16:43 20° SSE
Cosmos 1302 Rocket 4.0 22:08:14 10° NNW 22:13:34 80° ENE 22:16:58 22° SSE
Cosmos 1833 Rocket 3.7 22:08:45 10° N 22:13:49 33° ENE 22:17:18 18° ESE
Cosmos 2082 Rocket 3.4 22:10:10 10° N 22:15:12 31° NE 22:18:47 17° ESE
USA 215 4.1 22:14:20 16° SSE 22:19:10 40° SW 22:25:17 10° WNW
CZ-2C R/B 3.9 22:15:12 10° NE 22:19:23 22° E 22:20:50 20° ESE
Cosmos 1745 Rocket 4.0 22:13:45 10° N 22:20:07 87° E 22:24:48 19° S
Cosmos 1340 3.1 22:18:48 10° NNW 22:22:32 59° W 22:24:49 22° S
DMSP B5D2-2 4.1 22:18:53 10° NNE 22:24:09 88° WNW 22:29:09 11° SSW
CARTOSAT-1 4.0 22:23:41 28° SE 22:25:38 48° ENE 22:29:49 10° N
CENTAUR R/B 3.7 22:19:13 10° NNW 22:26:48 48° NE 22:33:17 17° ESE
NOSS 2-2 (E) 3.3 22:26:04 17° SSW 22:28:49 59° ESE 22:33:05 10° NE
Cosmos 2251 Rocket 3.7 22:23:51 10° SSW 22:29:11 77° WNW 22:34:32 10° NNE
Cosmos 1076 Rocket 3.9 22:30:20 32° SE 22:31:42 43° E 22:35:43 10° NNE
NOSS 3-4 (A) 3.4 22:25:43 10° SSW 22:31:52 83° ESE 22:38:18 10° NE
NOSS 3-4 (C) 3.4 22:25:48 10° SSW 22:31:57 82° ESE 22:38:23 10° NE
Helios 1B rocket 2.3 22:33:04 10° NNE 22:37:10 68° ESE 22:38:54 33° S
Helios 1A 3.1 22:37:59 29° S 22:40:00 68° WSW 22:44:13 10° NNW
Meteor 1-29 3.0 22:37:56 10° NNE 22:41:16 52° E 22:41:37 49° SE
Cosmos 1455 3.7 22:39:56 10° NNE 22:42:58 22° ENE 22:43:26 22° E
Cosmos 1726 3.9 22:40:09 10° NNW 22:43:22 27° W 22:45:51 14° SW
Cosmos 1300 2.9 22:41:05 10° NNW 22:44:53 65° W 22:46:20 35° SSW
Cosmos 1766 Rocket 4.4 22:48:52 32° ESE 22:49:36 34° E 22:53:40 10° NNE
APEX 4.3 22:48:23 10° NW 22:51:22 31° WSW 22:52:31 26° SW
Cosmos 1709 Rocket 3.9 22:47:01 10° N 22:53:16 80° E 22:56:22 31° SSE
CZ-2C R/B 3.3 22:54:27 33° SSE 22:57:13 78° ENE 23:02:57 10° N
SPOT 5 3.7 22:54:57 23° SSW 22:57:53 48° W 23:03:01 10° NNW
Cosmos 407 Rocket 4.4 22:58:03 28° ESE 22:58:28 28° E 23:02:51 10° NE
NOSS 2-2 (D) 3.4 22:57:20 20° SW 22:59:56 79° NW 23:04:17 10° NNE
YAOGAN 11 4.2 23:00:38 44° SSE 23:02:01 73° ENE 23:06:33 10° N
RESURS DK-1 2.2 23:03:43 53° S 23:04:33 70° ESE 23:08:42 10° NNE
ATLAS 3B R/B 3.7 23:05:27 10° NW 23:11:14 33° WSW 23:14:25 22° SSW
Cosmos 2278 Rocket 3.3 23:05:57 10° SW 23:11:20 44° WNW 23:16:47 10° NNE
Cosmos 1190 Rocket 4.5 23:12:42 38° ESE 23:13:22 40° ESE 23:18:12 10° NE
Meteor 1-11 4.2 23:12:37 37° S 23:14:57 75° E 23:20:45 10° NNE
Cosmos 1328 4.2 23:14:45 39° SW 23:15:56 57° W 23:19:50 10° N
Cosmos 2221 3.7 23:15:41 10° NNW 23:19:36 35° W 23:21:10 26° SW
SL-27 R/B 2.4 23:20:57 10° NNW 23:24:32 77° W 23:24:32 77° W
Cosmos 1441 Rocket 3.7 23:22:25 10° N 23:26:00 46° ENE 23:26:00 46° ENE
NOSS 2-2 (C) 4.5 23:22:44 11° WSW 23:26:13 43° NW 23:30:25 10° NNE
Okean 3 Rocket 4.3 23:27:16 32° SW 23:28:52 49° WNW 23:33:07 10° N
Aureole 3 Rocket 4.4 23:31:28 22° SSW 23:36:14 59° W 23:41:35 10° N
Cosmos 1328 Rocket 3.5 23:31:58 10° N 23:36:18 63° E 23:36:39 61° ESE
Cosmos 2369 Rocket 3.4 23:39:36 25° E 23:39:36 25° E 23:44:02 10° NE
Cosmos 405 Rocket 3.1 23:36:01 10° N 23:39:21 50° ENE 23:39:21 50° ENE
ATLAS 5 CENTAUR R/B 3.2 23:37:11 10° WSW 23:41:21 35° NW 23:45:56 10° NNE
Cosmos 1743 Rocket 3.9 23:42:25 51° E 23:42:25 51° E 23:46:41 10° NNE
Cosmos 2228 Rocket 3.4 23:40:28 10° N 23:44:49 50° E 23:45:04 49° E
Cosmos 332 Rocket 4.3 23:41:31 10° N 23:46:17 48° ENE 23:47:13 43° E
Cosmos 1626 4.3 23:45:00 16° WSW 23:46:28 20° WNW 23:49:18 10° NNW
Terra 3.2 23:45:46 24° SW 23:47:11 28° W 23:51:17 10° NW
Cosmos 2184 Rocket 3.9 23:42:14 10° N 23:48:36 86° E 23:50:33 48° SSE
SL-19 R/B 4.2 23:45:37 10° NNE 23:50:56 56° ESE 23:51:37 52° SE
